Tracking 29528 objects as of 12-Sep-2024
HD Live streaming from Space Station
objects crossing your sky now

STARLINK-5179

Track STARLINK-5179 now!
10-day predictions
STARLINK-5179 is classified as:


NORAD ID: 54102
Int'l Code: 2022-136BD
Perigee: 545.9 km
Apogee: 547.8 km
Inclination: 53.2 °
Period: 95.4 minutes
Semi major axis: 6917 km
RCS: Unknown
Launch date: October 20, 2022
Source: United States (US)
Launch site: AIR FORCE EASTERN TEST RANGE (AFETR)
Your satellite tracking list
Your tracking list is empty




NASA's NSSDC Master Catalog

Two Line Element Set (TLE):
1 54102U 22136BD  24256.18960061  .00001239  00000-0  95943-4 0  9995
2 54102  53.2159 254.0052 0001402  86.3980 273.7173 15.08843111105400
Source of the keplerian elements: AFSPC